Regional Weather Roundup
Issued by NWS Bismarck, ND

Home | Current Version | Previous Version | Text Only | Print | Product List | Glossary On
Versions: 1 2 3 4 5 6 7 8 9 10 11 12 13 14 15 16 17 18 19 20 21 22 23 24 25 26 27 28 29 30 31 32 33 34 35 36 37 38 39 40 41 42 43 44 45 46 47 48 49 50
128
ASUS43 KBIS 131010
RWRBIS

NWR BROADCAST TEXT
NATIONAL WEATHER SERVICE BISMARCK ND
400 AM CST SAT FEB 13 2016

NOTE: "FAIR" INDICATES FEW OR NO CLOUDS BELOW 12,000 FEET WITH NO
SIGNIFICANT WEATHER AND/OR OBSTRUCTIONS TO VISIBILITY.


CITY           SKY/WX    TMP DP  RH WIND       PRES   REMARKS
WILLISTON      LGT SNOW  13   8  81 SE14G20   30.19F WCI  -2
MINOT          CLOUDY     8  -5  55 SE15      30.33F WCI  -9
MINOT AFB      CLOUDY     6  -3  67 SE15      30.33F WCI -12
BISMARCK       CLOUDY     9  -1  64 SE15      30.38F WCI  -8
DICKINSON      CLOUDY    11   7  84 SE21G29   30.14F WCI  -8
GARRISON         N/A      6   1  80 SE14      30.32F WCI -11
HETTINGER ARPT CLOUDY    13   9  84 SE15      30.18F WCI  -3
JAMESTOWN      CLOUDY    -4 -12  68 SE9       30.49F WCI -20
BEACH          CLOUDY    18  18 100 SE18G31   30.10F WCI   2
CARRINGTON     FAIR      -2  -6  84 SE14      30.47F WCI -21
HAZEN          LGT SNOW   9   1  72 SE9       30.34F WCI  -5
LINTON         FAIR       3  -2  78 SE14G25   30.41F WCI -15
MANDAN         CLOUDY     5   0  78 SE17      30.35F WCI -14
OAKES          FAIR      -2  -9  71 SE8       30.55F WCI -17
RUGBY          FAIR       0  -9  65 SE9       30.43F WCI -16
STANLEY        FLURRIES   7   5  92 SE18      30.25F WCI -12
TIOGA          CLOUDY     9   9 100 SE22      30.24F FOG     WCI -11
WATFORD CITY   CLOUDY    10   7  85 SE13      30.19F WCI  -5
$$

CITY           SKY/WX    TMP DP  RH WIND       PRES   REMARKS
GRAND FORKS    CLOUDY    -8 -14  74 S5        30.61F WCI -19
GRAND FORKS AF CLOUDY   -10 -16  74 S3        30.60F
DEVILS LAKE    CLOUDY   -10 -14  82 SE7       30.49F WCI -25
FARGO          CLOUDY    -7 -12  79 SE3       30.63F
CAVALIER       FAIR      -9 -13  84 S5        30.59F WCI -21
GRAFTON        FAIR     -11 -15  84 S6        30.62F WCI -25
GWINNER        FAIR      -6  -9  84 SE5       30.57F WCI -17
LANGDON        FAIR     -18 -24  76 S7        30.47F WCI -35
ROLLA          FAIR     -11 -17  77 S8        30.42F WCI -28
WALHALLA       FAIR     -13 -18  77 CALM      30.57F
$$

CITY           SKY/WX    TMP DP  RH WIND       PRES   REMARKS
ABERDEEN       CLOUDY     2  -7  66 SE6       30.55F WCI  -9
MOBRIDGE       FLURRIES   7   0  73 SE14      30.37F WCI -10
BUFFALO          N/A     20  17  88 SE16      30.04F WCI   6
RAPID CITY     CLOUDY    27  24  89 SE14      30.10F WCI  16
GLASGOW        CLOUDY    18  13  80 E18       30.00F WCI   2
SIDNEY         CLOUDY    18  12  79 SE13      30.15F WCI   4
WOLF POINT     CLEAR     18  13  80 NE12      30.08F WCI   5
GLENDIVE       CLOUDY    23  18  80 SE7       30.09F WCI  15
MILES CITY     CLOUDY    29  24  82 SE13      30.00F WCI  19
BAKER          CLOUDY    20  16  84 SE23G30   30.07F WCI   3
$$

CITY           SKY/WX    TMP DP  RH WIND       PRES   REMARKS
BILLINGS       CLOUDY    32  29  88 SW7       29.96F
GREAT FALLS    CLEAR     41  30  65 S8        29.86F
REGINA         FLURRIES   9   3  78 SE25G33   30.11F WCI -13
$$





USA.gov is the U.S. government's official web portal to all federal, state and local government web resources and services.